TAY4996 EBLG-LFPG

Flight info

Callsign TAY4996
Flight time 0h 42m
Altitude 19000
Route CIV Y50 IDOKO/N0328F170 Y50 MATIX
Aircraft B738/M-SDE2E3FGHIRWXY/LB1

Departure

Time 2026-04-21 17:57
Airport Liège Airport (EBLG)

Arrival

Time 2026-04-21 18:39
Airport Charles de Gaulle International Airport (LFPG)
Time Latitude Longitude Altitude Speed Heading
2026-04-21 16:16 50.63296 5.44235 637 ft 0 kts 148°
2026-04-21 17:52 50.63303 5.44228 644 ft 4 kts 149°
2026-04-21 17:52 50.63327 5.44208 640 ft 4 kts 157°
2026-04-21 17:52 50.63352 5.44195 639 ft 4 kts 174°
2026-04-21 17:53 50.63376 5.44199 634 ft 4 kts 219°
2026-04-21 17:53 50.63380 5.44203 634 ft 1 kts 225°
2026-04-21 17:55 50.63366 5.44181 643 ft 6 kts 225°
2026-04-21 17:55 50.63321 5.44111 642 ft 13 kts 225°
2026-04-21 17:55 50.63230 5.43969 638 ft 23 kts 225°
2026-04-21 17:56 50.63255 5.43839 639 ft 19 kts 15°
2026-04-21 17:56 50.63407 5.43912 638 ft 25 kts 16°
2026-04-21 17:56 50.63465 5.43976 635 ft 0 kts 45°
2026-04-21 17:56 50.63468 5.43979 635 ft 5 kts 45°
2026-04-21 17:57 50.63736 5.44403 627 ft 107 kts 45°
2026-04-21 17:57 50.64462 5.45541 887 ft 172 kts 44°
2026-04-21 17:57 50.65390 5.46997 1822 ft 202 kts 46°
2026-04-21 17:57 50.66417 5.48623 2995 ft 212 kts 46°
2026-04-21 17:58 50.67420 5.50231 4336 ft 208 kts 47°
2026-04-21 17:58 50.68460 5.51882 5268 ft 214 kts 47°
2026-04-21 17:58 50.69522 5.53568 6190 ft 220 kts 47°
2026-04-21 17:58 50.70616 5.55319 7063 ft 226 kts 47°
2026-04-21 17:59 50.71857 5.56855 7990 ft 232 kts 25°
2026-04-21 17:59 50.73471 5.57161 8941 ft 242 kts 354°
2026-04-21 17:59 50.75037 5.56085 9827 ft 255 kts 323°
2026-04-21 17:59 50.76056 5.53731 10653 ft 268 kts 291°
2026-04-21 18:00 50.76564 5.50879 11513 ft 271 kts 287°
2026-04-21 18:00 50.77045 5.47968 12352 ft 276 kts 287°
2026-04-21 18:00 50.77545 5.45013 13195 ft 280 kts 288°
2026-04-21 18:00 50.78040 5.42058 13998 ft 287 kts 286°
2026-04-21 18:01 50.78515 5.38810 14283 ft 313 kts 284°
2026-04-21 18:01 50.79001 5.35311 14499 ft 339 kts 284°
2026-04-21 18:01 50.79517 5.31592 14768 ft 360 kts 284°
2026-04-21 18:01 50.80065 5.27683 15427 ft 368 kts 284°
2026-04-21 18:02 50.80436 5.25057 15970 ft 369 kts 284°
2026-04-21 18:02 50.80998 5.19669 17038 ft 377 kts 269°
2026-04-21 18:02 50.80430 5.15616 17812 ft 383 kts 245°
2026-04-21 18:02 50.79536 5.13216 18368 ft 384 kts 232°
2026-04-21 18:03 50.77594 5.10331 19068 ft 385 kts 212°
2026-04-21 18:03 50.75309 5.08109 19755 ft 388 kts 210°
2026-04-21 18:03 50.72962 5.05945 20426 ft 392 kts 209°
2026-04-21 18:03 50.69817 5.03083 21356 ft 395 kts 210°
2026-04-21 18:04 50.68212 5.01618 21933 ft 393 kts 210°
2026-04-21 18:04 50.65854 4.99454 22842 ft 389 kts 210°
2026-04-21 18:04 50.63548 4.97324 23712 ft 387 kts 211°
2026-04-21 18:04 50.61227 4.95171 24404 ft 387 kts 211°
2026-04-21 18:05 50.58900 4.93007 25052 ft 386 kts 211°
2026-04-21 18:05 50.56592 4.90859 25740 ft 385 kts 212°
2026-04-21 18:05 50.54281 4.88709 26191 ft 387 kts 213°
2026-04-21 18:05 50.51959 4.86551 26222 ft 386 kts 213°
2026-04-21 18:06 50.49653 4.84408 26221 ft 384 kts 213°
2026-04-21 18:06 50.47349 4.82271 26237 ft 384 kts 213°
2026-04-21 18:06 50.45048 4.80138 26237 ft 384 kts 213°
2026-04-21 18:06 50.42741 4.78002 26233 ft 385 kts 213°
2026-04-21 18:07 50.40434 4.75869 26227 ft 385 kts 213°
2026-04-21 18:07 50.38151 4.73760 26230 ft 386 kts 213°
2026-04-21 18:07 50.35838 4.71627 26221 ft 386 kts 213°
2026-04-21 18:07 50.33521 4.69492 26222 ft 386 kts 213°
2026-04-21 18:08 50.31208 4.67364 26212 ft 386 kts 214°
2026-04-21 18:08 50.28893 4.65236 26215 ft 386 kts 214°
2026-04-21 18:08 50.26576 4.63108 26213 ft 385 kts 214°
2026-04-21 18:08 50.24258 4.60983 26215 ft 385 kts 214°
2026-04-21 18:09 50.21944 4.58862 26217 ft 385 kts 214°
2026-04-21 18:09 50.19638 4.56752 26197 ft 384 kts 215°
2026-04-21 18:09 50.17332 4.54644 26208 ft 384 kts 214°
2026-04-21 18:09 50.15027 4.52540 26206 ft 384 kts 214°
2026-04-21 18:10 50.12725 4.50440 26208 ft 384 kts 214°
2026-04-21 18:10 50.10418 4.48338 26022 ft 385 kts 215°
2026-04-21 18:10 50.08146 4.46272 25788 ft 379 kts 216°
2026-04-21 18:10 50.05867 4.44203 25415 ft 377 kts 215°
2026-04-21 18:11 50.03596 4.42141 25061 ft 374 kts 215°
2026-04-21 18:11 50.01355 4.40109 24708 ft 371 kts 215°
2026-04-21 18:11 49.99156 4.38117 24355 ft 369 kts 214°
2026-04-21 18:11 49.96940 4.36111 23993 ft 366 kts 214°
2026-04-21 18:12 49.94754 4.34134 23620 ft 364 kts 214°
2026-04-21 18:12 49.92555 4.32148 23209 ft 361 kts 213°
2026-04-21 18:12 49.90421 4.30223 22860 ft 358 kts 213°
2026-04-21 18:12 49.88267 4.28282 22505 ft 354 kts 214°
2026-04-21 18:13 49.86140 4.26367 22155 ft 351 kts 214°
2026-04-21 18:13 49.84046 4.24483 21823 ft 348 kts 213°
2026-04-21 18:13 49.81971 4.22619 21469 ft 345 kts 213°
2026-04-21 18:13 49.79889 4.20749 21133 ft 342 kts 213°
2026-04-21 18:14 49.75800 4.17084 20458 ft 338 kts 213°
2026-04-21 18:14 49.73763 4.15260 20128 ft 336 kts 213°
2026-04-21 18:14 49.71746 4.13456 19796 ft 334 kts 212°
2026-04-21 18:15 49.69757 4.11679 19468 ft 333 kts 212°
2026-04-21 18:15 49.67731 4.09870 19138 ft 331 kts 212°
2026-04-21 18:15 49.65754 4.08107 18809 ft 330 kts 212°
2026-04-21 18:15 49.63788 4.06355 18494 ft 328 kts 212°
2026-04-21 18:16 49.61817 4.04599 18122 ft 327 kts 212°
2026-04-21 18:16 49.59836 4.02839 17762 ft 325 kts 212°
2026-04-21 18:16 49.57876 4.01086 17414 ft 323 kts 214°
2026-04-21 18:16 49.56268 3.98776 17105 ft 314 kts 238°
2026-04-21 18:17 49.55092 3.96014 16812 ft 311 kts 240°
2026-04-21 18:17 49.53932 3.93200 16464 ft 309 kts 240°
2026-04-21 18:17 49.52768 3.90382 16131 ft 308 kts 240°
2026-04-21 18:17 49.51630 3.87650 15816 ft 307 kts 239°
2026-04-21 18:18 49.50474 3.84900 15492 ft 306 kts 239°
2026-04-21 18:18 49.49306 3.82135 15161 ft 304 kts 239°
2026-04-21 18:18 49.48167 3.79447 14863 ft 303 kts 239°
2026-04-21 18:18 49.47181 3.76612 14522 ft 300 kts 255°
2026-04-21 18:19 49.46682 3.73527 14245 ft 296 kts 259°
2026-04-21 18:19 49.46208 3.70447 13924 ft 296 kts 259°
2026-04-21 18:19 49.45709 3.67377 13573 ft 295 kts 258°
2026-04-21 18:19 49.45198 3.64316 13240 ft 294 kts 257°
2026-04-21 18:20 49.44693 3.61318 13086 ft 289 kts 257°
2026-04-21 18:20 49.44187 3.58336 13085 ft 292 kts 258°
2026-04-21 18:20 49.43666 3.55256 13091 ft 303 kts 258°
2026-04-21 18:20 49.43129 3.52094 13100 ft 309 kts 258°
2026-04-21 18:21 49.42585 3.48902 13095 ft 308 kts 257°
2026-04-21 18:21 49.42041 3.45729 13094 ft 306 kts 257°
2026-04-21 18:21 49.41314 3.42624 12943 ft 311 kts 248°
2026-04-21 18:21 49.40378 3.39613 12742 ft 314 kts 245°
2026-04-21 18:22 49.39389 3.36623 12526 ft 313 kts 245°
2026-04-21 18:22 49.38401 3.33653 12300 ft 312 kts 245°
2026-04-21 18:22 49.37423 3.30691 12089 ft 310 kts 244°
2026-04-21 18:22 49.36461 3.27751 11875 ft 307 kts 245°
2026-04-21 18:23 49.35516 3.24837 11650 ft 304 kts 245°
2026-04-21 18:23 49.34577 3.21930 11455 ft 303 kts 245°
2026-04-21 18:23 49.33645 3.19032 11251 ft 303 kts 245°
2026-04-21 18:23 49.32717 3.16141 11043 ft 302 kts 244°
2026-04-21 18:24 49.31817 3.13228 10839 ft 301 kts 248°
2026-04-21 18:24 49.31065 3.10266 10660 ft 294 kts 252°
2026-04-21 18:24 49.30372 3.07336 10433 ft 290 kts 251°
2026-04-21 18:24 49.29701 3.04475 10248 ft 286 kts 251°
2026-04-21 18:25 49.29021 3.01611 10028 ft 286 kts 251°
2026-04-21 18:25 49.28330 2.98728 9876 ft 284 kts 251°
2026-04-21 18:25 49.27655 2.95945 9712 ft 285 kts 250°
2026-04-21 18:25 49.26954 2.93068 9566 ft 285 kts 250°
2026-04-21 18:26 49.26255 2.90211 9416 ft 286 kts 250°
2026-04-21 18:26 49.25554 2.87359 9288 ft 286 kts 250°
2026-04-21 18:26 49.24849 2.84498 9127 ft 287 kts 250°
2026-04-21 18:26 49.24143 2.81639 8984 ft 287 kts 250°
2026-04-21 18:27 49.23436 2.78780 8836 ft 287 kts 249°
2026-04-21 18:27 49.22726 2.75915 8687 ft 288 kts 249°
2026-04-21 18:27 49.22015 2.73051 8545 ft 288 kts 249°
2026-04-21 18:27 49.21303 2.70183 8395 ft 289 kts 249°
2026-04-21 18:28 49.20587 2.67302 8245 ft 290 kts 249°
2026-04-21 18:28 49.19868 2.64412 8107 ft 291 kts 249°
2026-04-21 18:28 49.19153 2.61548 7953 ft 291 kts 249°
2026-04-21 18:28 49.18434 2.58672 7799 ft 288 kts 249°
2026-04-21 18:29 49.17737 2.55816 7656 ft 285 kts 250°
2026-04-21 18:29 49.17090 2.52951 7522 ft 286 kts 251°
2026-04-21 18:29 49.16452 2.50069 7377 ft 286 kts 251°
2026-04-21 18:29 49.15811 2.47168 6957 ft 291 kts 250°
2026-04-21 18:30 49.15150 2.44194 6451 ft 299 kts 250°
2026-04-21 18:30 49.14478 2.41184 6097 ft 299 kts 250°
2026-04-21 18:30 49.13807 2.38186 5812 ft 297 kts 250°
2026-04-21 18:30 49.13138 2.35207 5527 ft 295 kts 250°
2026-04-21 18:31 49.12472 2.32245 5237 ft 294 kts 250°
2026-04-21 18:31 49.11805 2.29289 4953 ft 293 kts 250°
2026-04-21 18:31 49.11147 2.26369 4711 ft 290 kts 250°
2026-04-21 18:31 49.10500 2.23507 4445 ft 287 kts 250°
2026-04-21 18:32 49.09851 2.20646 4220 ft 282 kts 250°
2026-04-21 18:32 49.09205 2.17803 4113 ft 285 kts 249°
2026-04-21 18:32 49.08502 2.15001 4003 ft 277 kts 238°
2026-04-21 18:32 49.07250 2.12959 3993 ft 255 kts 206°
2026-04-21 18:33 49.05680 2.12087 4010 ft 233 kts 181°
2026-04-21 18:33 49.04125 2.12157 3990 ft 216 kts 160°
2026-04-21 18:33 49.02788 2.12975 3986 ft 200 kts 140°
2026-04-21 18:33 49.01745 2.14276 3990 ft 189 kts 127°
2026-04-21 18:34 49.00967 2.15848 3998 ft 184 kts 112°
2026-04-21 18:34 49.00563 2.17668 4003 ft 185 kts 96°
2026-04-21 18:34 49.00626 2.19621 4009 ft 187 kts 81°
2026-04-21 18:34 49.00832 2.21587 4005 ft 188 kts 82°
2026-04-21 18:35 49.00939 2.22903 4000 ft 188 kts 84°
2026-04-21 18:35 49.01101 2.25574 3900 ft 190 kts 84°
2026-04-21 18:35 49.01206 2.27584 3651 ft 190 kts 84°
2026-04-21 18:35 49.01306 2.29589 3406 ft 190 kts 84°
2026-04-21 18:36 49.01406 2.31577 3162 ft 190 kts 85°
2026-04-21 18:36 49.01505 2.33571 2908 ft 186 kts 85°
2026-04-21 18:36 49.01604 2.35514 2646 ft 181 kts 84°
2026-04-21 18:36 49.01700 2.37401 2390 ft 175 kts 85°
2026-04-21 18:37 49.01792 2.39214 2164 ft 167 kts 84°
2026-04-21 18:37 49.01878 2.40909 1928 ft 154 kts 84°
2026-04-21 18:37 49.01958 2.42489 1736 ft 153 kts 83°
2026-04-21 18:37 49.02041 2.44086 1527 ft 144 kts 83°
2026-04-21 18:38 49.02117 2.45556 1339 ft 141 kts 84°
2026-04-21 18:38 49.02193 2.47060 1129 ft 145 kts 85°
2026-04-21 18:38 49.02262 2.48613 927 ft 145 kts 83°
2026-04-21 18:38 49.02352 2.50146 744 ft 147 kts 86°
2026-04-21 18:39 49.02429 2.51711 509 ft 147 kts 84°
2026-04-21 18:39 49.02512 2.53223 361 ft 135 kts 83°
2026-04-21 18:39 49.02576 2.54358 355 ft 77 kts 85°
2026-04-21 18:39 49.02603 2.54871 357 ft 32 kts 85°
2026-04-21 18:40 49.02592 2.55191 359 ft 29 kts 105°
2026-04-21 18:40 49.02516 2.55468 358 ft 27 kts 116°
2026-04-21 18:40 49.02443 2.55606 362 ft 24 kts 164°
2026-04-21 18:40 49.02233 2.55636 360 ft 22 kts 175°
2026-04-21 18:41 49.02087 2.55628 359 ft 20 kts 226°
2026-04-21 18:41 49.02060 2.55431 353 ft 18 kts 265°
2026-04-21 18:41 49.02050 2.55247 353 ft 17 kts 265°
2026-04-21 18:41 49.02041 2.55073 353 ft 16 kts 265°
2026-04-21 18:42 49.02033 2.54906 361 ft 16 kts 265°
2026-04-21 18:42 49.02025 2.54745 353 ft 15 kts 265°
2026-04-21 18:42 49.02016 2.54591 357 ft 14 kts 264°
2026-04-21 18:42 49.02007 2.54444 355 ft 14 kts 265°
2026-04-21 18:43 49.02000 2.54303 356 ft 13 kts 266°
2026-04-21 18:43 49.01975 2.54176 358 ft 13 kts 230°
2026-04-21 18:43 49.01909 2.54090 355 ft 13 kts 239°
2026-04-21 18:43 49.01890 2.53933 360 ft 18 kts 265°
2026-04-21 18:44 49.01877 2.53717 358 ft 22 kts 265°
2026-04-21 18:44 49.01865 2.53480 353 ft 22 kts 262°
2026-04-21 18:44 49.01850 2.53249 354 ft 22 kts 266°
2026-04-21 18:44 49.01841 2.53023 353 ft 21 kts 267°
2026-04-21 18:45 49.01830 2.52804 358 ft 20 kts 265°
2026-04-21 18:45 49.01818 2.52592 358 ft 20 kts 265°
2026-04-21 18:45 49.01807 2.52386 353 ft 19 kts 265°
2026-04-21 18:45 49.01793 2.52189 356 ft 19 kts 248°
2026-04-21 18:46 49.01701 2.52074 358 ft 18 kts 257°
2026-04-21 18:46 49.01690 2.51890 355 ft 17 kts 265°
2026-04-21 18:46 49.01680 2.51710 354 ft 17 kts 265°
2026-04-21 18:46 49.01671 2.51535 358 ft 16 kts 265°
2026-04-21 18:47 49.01661 2.51366 353 ft 15 kts 264°
2026-04-21 18:47 49.01654 2.51228 355 ft 13 kts 265°
2026-04-21 18:47 49.01646 2.51096 355 ft 12 kts 264°
2026-04-21 18:47 49.01639 2.50966 359 ft 12 kts 266°
2026-04-21 18:48 49.01632 2.50838 353 ft 12 kts 265°
2026-04-21 18:48 49.01626 2.50714 353 ft 12 kts 265°
2026-04-21 18:48 49.01619 2.50593 353 ft 11 kts 265°
2026-04-21 18:48 49.01611 2.50476 357 ft 11 kts 251°
2026-04-21 18:49 49.01547 2.50431 353 ft 11 kts 176°
2026-04-21 18:49 49.01473 2.50439 355 ft 11 kts 175°
2026-04-21 18:49 49.01433 2.50404 357 ft 10 kts 236°
2026-04-21 18:49 49.01435 2.50267 356 ft 10 kts 318°
2026-04-21 18:50 49.01487 2.50252 360 ft 3 kts 353°
2026-04-21 18:50 49.01494 2.50250 358 ft 0 kts 354°